Hourly Data Report for September 21, 2004

TORONTO CITY
ONTARIO

43°40'00.000" N
79°24'00.000" W
112.50 m
6158355
71508
XTO

Download Data

Hourly Data (September 2004)
Hourly Data Report for September 21, 2004
TIME
LST
Temp Definition
°C
Dew Point Definition
°C
Rel Hum Definition
%
Precip. Amount Definition
mm

Wind Dir Definition
10's deg

Wind Spd Definition
km/h
Visibility Definition
km
Stn Press Definition
kPa
Hmdx Definition


Wind Chill Definition


Weather Definition


00:00 15.7 10.0 69   LegendMM LegendMM LegendMM 101.08     LegendNANA
01:00 14.6 9.0 69   LegendMM LegendMM LegendMM 101.08     LegendNANA
02:00 14.7 9.2 70   LegendMM LegendMM LegendMM 101.06     LegendNANA
03:00 13.6 9.3 75   LegendMM LegendMM LegendMM 101.04     LegendNANA
04:00 13.5 8.4 71   LegendMM LegendMM LegendMM 101.02     LegendNANA
05:00 13.1 8.9 76   LegendMM LegendMM LegendMM 101.06     LegendNANA
06:00 12.3 7.7 73   LegendMM LegendMM LegendMM 101.09     LegendNANA
07:00 14.6 9.4 71   LegendMM LegendMM LegendMM 101.14     LegendNANA
08:00 18.1 9.4 57   LegendMM LegendMM LegendMM 101.13     LegendNANA
09:00 19.5 10.3 55   LegendMM LegendMM LegendMM 101.14     LegendNANA
10:00 21.8 10.5 49   LegendMM LegendMM LegendMM 101.10     LegendNANA
11:00 22.4 13.2 56   LegendMM LegendMM LegendMM 101.03 25   LegendNANA
12:00 22.9 14.1 58   LegendMM LegendMM LegendMM 101.01 26   LegendNANA
13:00 24.6 14.9 55   LegendMM LegendMM LegendMM 100.95 29   LegendNANA
14:00 24.6 14.6 54   LegendMM LegendMM LegendMM 100.89 28   LegendNANA
15:00 25.1 14.9 53   LegendMM LegendMM LegendMM 100.84 29   LegendNANA
16:00 25.0 15.2 55   LegendMM LegendMM LegendMM 100.79 29   LegendNANA
17:00 24.2 14.3 54   LegendMM LegendMM LegendMM 100.79 28   LegendNANA
18:00 22.4 17.6 74   LegendMM LegendMM LegendMM 100.81 28   LegendNANA
19:00 21.4 17.7 79   LegendMM LegendMM LegendMM 100.83 27   LegendNANA
20:00 19.8 17.5 87   LegendMM LegendMM LegendMM 100.86     LegendNANA
21:00 18.5 15.8 84   LegendMM LegendMM LegendMM 100.89     LegendNANA
22:00 17.9 14.6 81   LegendMM LegendMM LegendMM 100.92     LegendNANA
23:00 19.0 14.9 77   LegendMM LegendMM LegendMM 100.89     LegendNANA

Notes on Data Quality.

Legend

  • E = Estimated
  • M = Missing
  • NA = Not Available*
  • [empty] = Indicates an unobserved value
Date modified: